Weather History for KABQ - August, 2013

Change the Weather History Date:

Tuesday, August 20, 2013

  Actual Average Record
Temperature  
Mean Temperature 78 °F 76 °F  
Max Temperature 90 °F 87 °F 98 °F (1905)
Min Temperature 65 °F 65 °F 51 °F (1914)
Degree Days  
Heating Degree Days 0 0  
Month to date heating degree days 0 0  
Since 1 June heating degree days 0 4  
Since 1 July heating degree days 0 0  
Cooling Degree Days 13 11  
Month to date cooling degree days 254 234  
Year to date cooling degree days 1232 1045  
Since 1 June cooling degree days 1115 947  
Growing Degree Days 27 (Base 50)    
Moisture  
Dew Point 53 °F    
Average Humidity 48    
Maximum Humidity 73    
Minimum Humidity 23    
Precipitation  
Precipitation T in 0.05 in 0.94 in (1932)
Month to date precipitation 0.26 1.11  
Year to date precipitation 3.73 5.81  
Snow  
Snow 0.00 in - - ()
Month to date snowfall 0.0  
Since 1 June snowfall 0.0  
Since 1 July snowfall 0.0  
Snow Depth 0.00 in    
Sea Level Pressure  
Sea Level Pressure 29.93 in    
Wind  
Wind Speed 5 mph (SSE)    
Max Wind Speed 31 mph    
Max Gust Speed 38 mph    
Visibility 10 miles    
Events Rain , Thunderstorm    
T = Trace of Precipitation, MM = Missing Value Source: NWS Daily Summary

Daily Weather History Graph

Daily Weather History Graph

Search for Another Location

Airport or City:

Trip Planner

Search our weather history database for the weather conditions in past years. The results will help you decide how hot, cold, wet, or windy it might be!

Date:

Astronomy

Aug. 20, 2013 Rise Set
Actual Time 6:30 AM MDT 7:48 PM MDT
Civil Twilight 6:03 AM MDT 8:14 PM MDT
Nautical Twilight 5:32 AM MDT 8:46 PM MDT
Astronomical Twilight 4:59 AM MDT 9:19 PM MDT
Moon 7:24 PM MDT (8/20) 6:02 AM MDT (8/20)
Length of Visible Light 14h 10m
Length of Day
13h 18m
Full, 100% of the Moon is Illuminated
Aug 20
Full
Aug 20
Full
Aug 28
Last Quarter
Sep 5
New
Sep 12
First Quarter

Hourly Weather History & Observations

Time (MDT) Temp. Heat Index Dew Point Humidity Pressure Visibility Wind Dir Wind Speed Gust Speed Precip Events Conditions
12:52 AM 68.0 °F - 57.0 °F 68% 29.99 in 10.0 mi South 5.8 mph - N/A   Mostly Cloudy
1:52 AM 66.9 °F - 57.0 °F 70% 29.97 in 10.0 mi SSE 5.8 mph - N/A   Scattered Clouds
2:52 AM 66.9 °F - 57.0 °F 70% 29.95 in 10.0 mi East 5.8 mph - N/A   Scattered Clouds
3:52 AM 66.0 °F - 55.0 °F 68% 29.93 in 10.0 mi Calm Calm - N/A   Scattered Clouds
4:52 AM 66.9 °F - 55.0 °F 66% 29.94 in 10.0 mi Calm Calm - N/A   Scattered Clouds
5:52 AM 66.0 °F - 55.0 °F 68% 29.93 in 10.0 mi ENE 3.5 mph - N/A   Scattered Clouds
6:52 AM 66.0 °F - 57.0 °F 73% 29.94 in 10.0 mi North 4.6 mph - N/A   Scattered Clouds
7:52 AM 68.0 °F - 57.0 °F 68% 29.97 in 10.0 mi North 5.8 mph - N/A   Partly Cloudy
8:52 AM 71.1 °F - 55.9 °F 59% 29.99 in 10.0 mi Calm Calm - N/A   Partly Cloudy
9:52 AM 73.0 °F - 55.9 °F 55% 29.99 in 10.0 mi West 4.6 mph - N/A   Partly Cloudy
10:52 AM 75.0 °F - 55.9 °F 51% 29.98 in 10.0 mi Variable 3.5 mph - N/A   Partly Cloudy
11:52 AM 79.0 °F - 55.0 °F 44% 29.96 in 10.0 mi Calm Calm - N/A   Partly Cloudy
12:52 PM 81.0 °F 80.7 °F 55.0 °F 41% 29.93 in 10.0 mi Variable 5.8 mph - N/A   Partly Cloudy
1:52 PM 84.0 °F 82.5 °F 53.1 °F 34% 29.90 in 10.0 mi South 6.9 mph - N/A   Scattered Clouds
2:52 PM 86.0 °F - 50.0 °F 29% 29.86 in 10.0 mi WSW 6.9 mph - N/A   Scattered Clouds
3:52 PM 88.0 °F - 48.9 °F 26% 29.84 in 10.0 mi Variable 3.5 mph - N/A   Scattered Clouds
4:52 PM 89.1 °F - 46.9 °F 23% 29.82 in 10.0 mi SW 8.1 mph - N/A   Mostly Cloudy
5:38 PM 89.6 °F - 48.2 °F 24% 30.08 in 10.0 mi South 6.9 mph - N/A Thunderstorm Thunderstorm
5:52 PM 89.1 °F - 48.0 °F 24% 29.81 in 10.0 mi South 9.2 mph - N/A Thunderstorm Thunderstorm
6:19 PM 80.6 °F 81.1 °F 59.0 °F 48% 30.08 in 10.0 mi NE 18.4 mph - 0.00 in Rain , Thunderstorm Light Thunderstorms and Rain
6:52 PM 81.0 °F - 48.9 °F 33% 29.85 in 10.0 mi North 8.1 mph - 0.00 in Thunderstorm Thunderstorm
7:37 PM 80.6 °F - 51.8 °F 37% 30.11 in 10.0 mi East 5.8 mph - N/A   Mostly Cloudy
7:52 PM 80.1 °F 80.0 °F 54.0 °F 40% 29.87 in 10.0 mi ESE 5.8 mph - N/A   Mostly Cloudy
8:52 PM 80.1 °F - 51.1 °F 36% 29.90 in 10.0 mi SSW 6.9 mph - N/A   Mostly Cloudy
9:52 PM 79.0 °F - 52.0 °F 39% 29.92 in 10.0 mi South 8.1 mph - N/A   Mostly Cloudy
10:52 PM 77.0 °F - 53.1 °F 43% 29.92 in 10.0 mi SE 5.8 mph - N/A   Overcast
11:52 PM 77.0 °F - 52.0 °F 42% 29.91 in 10.0 mi Calm Calm - N/A   Overcast